Regional Weather Roundup
Issued by NWS Upton, NY

Current Version | Previous Version | Text Only | Print | Product List | Glossary On
Versions: 1 2 3 4 5 6 7 8 9 10 11 12 13 14 15 16 17 18 19 20 21 22 23 24 25 26 27 28 29 30 31 32 33 34 35 36 37 38 39 40 41 42 43 44 45 46 47 48 49
000
ASUS41 KOKX 031608
RWROKX

REGIONAL WEATHER ROUNDUP
NATIONAL WEATHER SERVICE NEW YORK NY
1200 PM EDT SUN MAY 03 2015

NOTE: "FAIR" INDICATES FEW OR NO CLOUDS BELOW 12,000 FEET WITH NO
SIGNIFICANT WEATHER AND/OR OBSTRUCTIONS TO VISIBILITY.

NYZ071-072-176-178-NJZ106-104-031700-
NEW YORK CITY METRO AREA


CITY           SKY/WX    TMP DP  RH WIND       PRES   REMARKS
CENTRAL PARK   SUNNY     73  38  27 W6        30.11F
LAGUARDIA APRT MOSUNNY   71  39  31 CALM      30.08F
KENNEDY INTL   PTSUNNY   62  45  53 SW9       30.11S
NEWARK/LIBERTY PTSUNNY   74  40  29 CALM      30.09S
BRNX BOT. GARD   N/A     72  37  28 W5        30.09S
TETERBORO      SUNNY     74  37  26 CALM      30.08S
$$

NYZ177-179-078>081-031700-
LONG ISLAND NEW YORK

CITY           SKY/WX    TMP DP  RH WIND       PRES   REMARKS
FARMINGDALE    SUNNY     62  47  57 S10       30.11R
ISLIP          PTSUNNY   63  45  51 S8        30.09S
SHIRLEY        SUNNY     61  44  53 SW12      30.11S
WESTHAMPTON    SUNNY     59  41  51 S12G18    30.12S
MONTAUK POINT    N/A     61  39  44 S7        30.12R
$$

NYZ052-065-067-031700-
HUDSON VALLEY

CITY           SKY/WX    TMP DP  RH WIND       PRES   REMARKS
WHITE PLAINS   MOSUNNY   72  40  31 W5        30.08S
NEWBURGH       MOSUNNY   72  43  35 CALM      30.08F
MONTGOMERY     SUNNY     75  43  31 VRB3      30.06F
POUGHKEEPSIE   SUNNY     74  42  31 CALM      30.06F
ALBANY         MOSUNNY   74  42  31 NE5       30.05F
$$

NJZ001-105-106-008-010-013-015-019>022-104-031700-
NEW JERSEY

CITY           SKY/WX    TMP DP  RH WIND       PRES   REMARKS
NEWARK/LIBERTY PTSUNNY   74  40  29 CALM      30.09S
TETERBORO      SUNNY     74  37  26 CALM      30.08S
CALDWELL       SUNNY     74  40  29 VRB7      30.08F
MORRISTOWN     MOSUNNY   75  37  25 CALM      30.08F
SOMERVILLE     SUNNY     76  41  28 MISG      30.07S
SUSSEX         SUNNY     73  38  27 VRB6      30.09S
ANDOVER          N/A     73  39  29 VRB5      30.09F
TRENTON        SUNNY     73  44  35 SW7       30.10S
MILLVILLE      SUNNY     71  48  43 E3        30.11S
ATLANTIC CITY  SUNNY     73  47  39 CALM      30.10F
WRIGHTSTOWN    SUNNY     71  45  39 VRB3      30.09S
TOMS RIVER     SUNNY     72  43  35 NE6       30.11S
BELMAR         SUNNY     70  43  37 CALM      30.10S
$$

PAZ047>061-062-071-031700-
EASTERN PENNSYLVANIA

CITY           SKY/WX    TMP DP  RH WIND       PRES   REMARKS
PHILADELPHIA   MOSUNNY   72  45  37 SE6       30.11S
ALLENTOWN      SUNNY     74  38  27 VRB3      30.10S
SCRANTON       SUNNY     74  37  26 VRB3      30.10F
$$

CTZ002-004>006-009-010-012-RIZ004-006-007-MAZ004-011-015-031700-
SOUTHERN NEW ENGLAND
 IN CT

CITY           SKY/WX    TMP DP  RH WIND       PRES   REMARKS
BRADLEY INTL   MOSUNNY   73  43  33 S5        30.04F
HARTFORD       SUNNY     70  44  39 SE9       30.06F
DANBURY        SUNNY     73  36  25 NW9       30.08S
WTRBRY/OXFORD  MOSUNNY   70  36  28 VRB7      30.09S
BRIDGEPORT     SUNNY     61  44  53 SW8       30.09S
MERIDEN        SUNNY     72  40  31 E5        30.06F
NEW HAVEN      MOSUNNY   60  43  53 SW7       30.09S
CHESTER        FAIR      66  43  42 S8        30.08S
GROTON         SUNNY     60  41  49 SW12      30.09R
WILLIMANTIC    SUNNY     71  40  32 VRB3      30.06F

 IN RI

CITY           SKY/WX    TMP DP  RH WIND       PRES   REMARKS
PROVIDENCE     MOSUNNY   60  41  49 SE13      30.08S
BLOCK ISLAND   SUNNY     54  41  62 S14       30.11S
WESTERLY       SUNNY     59  38  45 SW9       30.11R

 IN MA

CITY           SKY/WX    TMP DP  RH WIND       PRES   REMARKS
BOSTON         MOSUNNY   58  44  60 E10       30.07S
WORCESTER      SUNNY     70  38  31 E5        30.05F
WESTFIELD      SUNNY     73  41  31 VRB6      30.04F
PROVINCETOWN   PTSUNNY   57  45  62 S15       30.10S
NANTUCKET      SUNNY     52  38  58 S10       30.14R
$$

ANZ330-335-338-340-345-350-353-355-031700-
COASTAL MARINE OBSERVATIONS


STATION/POSITION TIME  SKY/WX   TEMP    WIND        PRES    VSBY  WAVE
                                AIR SEA DIR/SP/G                  HT/PER
                 (UTC)          (F)     (DEG/KT/KT) (MB)    (MI)  (FT/S)
NY HARB ENTRANCE 1550            51 51  190/  8/ 10 1019.4          4/10
4S FIRE IS       1503               48                N/A           5/ 9
20S FIRE ISLAND  1550            48 47  180/  8/  8 1020.2          4/ 8
GREAT SOUTH BAY  1500            51 57  220/ 10/ 12   N/A
23SW MTP         1550            47 45  210/  8/ 10 1020.0          4/ 8
HUDSON CANYON    NOT AVBL
EXECUTION ROCKS  NOT AVBL
WESTERN LI SOUND NOT AVBL
CENTRAL LI SOUND NOT AVBL
EASTERN LI SOUND 1500            51     250/  6/  6   N/A
ROBBINS REEF     1500            57     160/  7/  8 1018.0
$$


>>>>>>>>>>>>>>>>>>>>>>>>>>>> KEY <<<<<<<<<<<<<<<<<<<<<<<<<<<
>                                                          <
>     SKY/WX - SKY CONDITION/PRESENT WEATHER               <
>     TMP    - TEMPERATURE IN FAHRENHEIT                   <
>     DP     - DEWPOINT IN FAHRENHEIT                      <
>     RH     - RELATIVE HUMIDITY IN PERCENT                <
>     WIND   - DIRECTION AND SPEED IN MPH                  <
>     PRES   - MEAN SEA LEVEL PRESSURE IN INCHES OF HG     <
>     WCI    - WIND CHILL INDEX                            <
>     VSB    - VISIBILITY IN MILES                         <
>     HX     - HEAT INDEX                                  <
>     TC     - TEMPERATURE IN CELSIUS                      <
>     VRB    - VARIABLE WIND DIRECTION                     <
>                                                          <
>>>>>>>>>>>>>>>>>>>>>>>>>>>> KEY <<<<<<<<<<<<<<<<<<<<<<<<<<<





USA.gov is the U.S. government's official web portal to all federal, state and local government web resources and services.